Flag for U.S.A. Weather past 2 weeks in Ann Arbor, Michigan, U.S.A.

Now
63 °F

Fog.


Feels Like: 63 °F
Forecast: 63 / 84 °F
Wind: No wind

Location: Ann Arbor Municipal Airport

Current Time: Aug 31, 2015 at 12:54:14 AM

Latest Report: Aug 30, 2015 at 11:53 PM


Visibility: 0 mi

Pressure: 30.03 "Hg

Humidity: 100%

Dew point: 63 °F

Location of Ann ArborLocation

Historic Weather in Ann Arbor — Graph

°F

Ann Arbor temperature yesterday

Maximum temperature yesterday: 83 °F (at 3:53 PM)
Minimum temperature yesterday: 65 °F (at 2:53 AM)
Average temperature yesterday: 72 °F

Past Weeks' High & Low Weather Summary

 TemperatureHumidityPressure
High86 °F (Aug 16, 3:53 PM)100% (Aug 16, 6:58 AM)30.22 "Hg (Aug 16, 6:58 AM)
Low42 °F (Aug 28, 6:53 AM)39% (Aug 21, 2:53 PM)29.68 "Hg (Aug 20, 12:53 AM)
Average66 °F79%30.01 "Hg
* Reported Aug 15 10:53 PM — Aug 30 10:53 PM, Ann Arbor, Weather by CustomWeather, © 2015

Note: Actual official high and low records may vary slightly from our data, if they occured in-between our weather recording intervals... More about our weather records

Advertising

Ann Arbor weather history for previous 24 hours

 ConditionsComfort  
Time TempWeatherWind HumidityBarometerVisibility
10:53 PM
Sun, Aug 30
65 °FFog.No wind97%30.03 "Hg1 mi
10:03 PM68 °FFog.3 mph96%30.05 "Hg4 mi
8:53 PM70 °FSunny.No wind90%30.01 "Hg8 mi
7:53 PM78 °FPassing clouds.7 mph71%30.00 "Hg10 mi
6:53 PM80 °FPassing clouds.6 mph67%30.00 "Hg10 mi
5:53 PM82 °FSunny.8 mph63%29.99 "Hg10 mi
4:53 PM81 °FBroken clouds.7 mph65%30.00 "Hg10 mi
3:53 PM83 °FScattered clouds.8 mph61%30.01 "Hg10 mi
2:53 PM82 °FBroken clouds.7 mph63%30.02 "Hg10 mi
1:53 PM80 °FScattered clouds.7 mph69%30.03 "Hg10 mi
1:00 PM77 °FBroken clouds.7 mph74%30.07 "Hg9 mi
11:53 AM75 °FMostly cloudy.5 mph79%30.07 "Hg9 mi
10:53 AM72 °FFog.3 mph87%30.07 "Hg6 mi
9:53 AM69 °FFog.3 mph90%30.07 "Hg5 mi
8:53 AM68 °FFog.No wind90%30.07 "Hg5 mi
8:00 AM67 °FFog.No wind93%30.07 "Hg2 mi
6:53 AM66 °FFog.No wind96%30.04 "Hg3 mi
5:53 AM65 °FFog.No wind97%30.03 "Hg3 mi
5:00 AM66 °FFog.No wind96%30.04 "Hg3 mi
3:53 AM66 °FFog.No wind93%30.02 "Hg3 mi
2:53 AM65 °FFog.No wind97%30.03 "Hg2 mi
1:53 AM67 °FFog.No wind93%30.05 "Hg4 mi
12:53 AM67 °FLight rain. Fog.No wind93%30.05 "Hg6 mi
Weather by CustomWeather, © 2015

See weather overviewHow to use our weather pages